Latest Coastal Weather Observations for Truscott

IDW60701

Issued at 2:15 pm WST Saturday 29 November 2014 (issued every 10 minutes, with the page automatically refreshed every 10 minutes)

About coastal observations | Map of coastal stations | Coastal observations for WA | Marine services | Other Formats
Station Details ID: 001020 Name: TRUSCOTT Lat: -14.09 Lon: 126.39 Height: 51.0 m
Data from the previous 72 hours. | See also: Recent months at Truscott
Date/Time
WST
Temp

°C
Wind Pressure Rain
since 9am
mm
Weather Cloud Vis
km
Sea
Height
m
Swell
Dir
 
Speed
knots
Gust
knots
hPa Trend Height
m
Period
s
Dir
29/02:00pm 34.0 WNW 8 8 1004.0 - 0.0 - Partly cloudy 10 - - - -
29/01:30pm 34.0 W 6 9 1005.0 - 0.0 - - 10 - - - -
29/01:00pm 32.0 W 6 - 1005.0 - 0.0 - - 10 - - - -
29/12:30pm 32.0 W 6 - 1006.0 - 0.0 - - 10 - - - -
29/12:00pm 31.5 W 7 - 1006.1 - 0.0 - - 10 - - - -
29/11:30am 31.0 W 7 - 1007.0 - 0.0 - - 10 - - - -
29/11:00am 32.0 WSW 8 - 1007.0 - 0.0 - Partly cloudy 10 - - - -
29/10:30am 30.0 N 8 - 1007.0 - 0.0 - Partly cloudy 10 - - - -
29/10:00am 32.0 WNW 7 - 1008.0 - 0.0 - Partly cloudy 10 - - - -
29/09:30am 32.0 WNW 8 - 1008.0 - 0.0 - Partly cloudy 10 - - - -
29/09:00am 31.9 W 6 - 1007.8 - 0.0 - Cloudy 10 - - - -
29/08:30am 31.0 W 6 - 1008.0 - 0.0 - Partly cloudy 10 - - - -
29/08:00am 30.0 W 5 - 1008.0 - 0.0 - Partly cloudy 6 - - - -
29/07:30am 30.0 W 5 - 1008.0 - 0.0 - Partly cloudy 10 - - - -
29/07:00am 30.0 WSW 4 - 1008.0 - 0.0 - Partly cloudy 10 - - - -
29/06:30am 30.0 SSW 3 - 1008.0 - 0.0 - Partly cloudy 10 - - - -
29/06:00am 29.1 CALM 0 - 1008.1 - 0.0 - Mostly clear 10 - - - -
29/05:30am 28.0 CALM 0 - 1008.0 - 0.0 - - 10 - - - -
29/05:29am 28.0 CALM 0 - 1008.0 - 0.0 - - 10 - - - -
29/05:14am 27.0 CALM 0 - 1008.0 - 0.0 - - 5 - - - -
29/05:00am 27.0 CALM 0 - 1008.0 - 0.0 - Partly cloudy 10 - - - -
29/04:30am 27.0 SE 3 - 1007.0 - 0.0 - Partly cloudy 10 - - - -
29/04:00am 27.0 SSW 1 - 1007.0 - 0.0 - - 10 - - - -
29/03:30am 27.0 CALM 0 - 1007.0 - 0.0 - - 10 - - - -
29/03:00am 26.8 CALM 0 - 1006.5 - 0.0 - - 10 - - - -
29/02:30am 27.0 CALM 0 - 1007.0 - 0.0 - - 9 - - - -
29/02:00am 27.0 CALM 0 - 1007.0 - 0.0 - - 10 - - - -
29/01:30am 28.0 W 2 - 1007.0 - 0.0 - - 10 - - - -
29/01:00am 28.0 CALM 0 - 1007.0 - 0.0 - - 9 - - - -
29/12:30am 28.0 WNW 2 - 1007.0 - 0.0 - - 10 - - - -
29/12:00am 28.0 WNW 3 3 1006.9 - 0.0 - - 10 - - - -
 
Date/Time
WST
Temp

°C
Wind Pressure Rain
since 9am
mm
Weather Cloud Vis
km
Sea
Height
m
Swell
Dir
 
Speed
knots
Gust
knots
hPa Trend Height
m
Period
s
Dir
28/11:30pm 28.0 NW 4 - 1007.0 - 0.0 - - 10 - - - -
28/11:00pm 28.0 NW 4 - 1008.0 - 0.0 - - 10 - - - -
28/10:30pm 29.0 W 3 - 1008.0 - 0.0 - - 10 - - - -
28/10:00pm 29.0 N 3 - 1009.0 - 0.0 - - 10 - - - -
28/09:30pm 29.0 N 3 - 1009.0 - 0.0 - - 10 - - - -
28/09:00pm 29.0 NNE 4 - 1008.5 - 0.0 - - 10 - - - -
28/08:30pm 29.0 N 3 - 1009.0 - 0.0 - - 10 - - - -
28/08:00pm 29.0 NNW 3 - 1008.0 - 0.0 - - 10 - - - -
28/07:30pm 29.0 NNW 3 - 1008.0 - 0.0 - - 10 - - - -
28/07:00pm 29.0 NW 4 - 1008.0 - 0.0 - - 10 - - - -
28/06:30pm 29.0 NW 5 - 1008.0 - 0.0 - - 10 - - - -
28/06:00pm 29.6 NW 5 - 1007.0 - 0.0 - - 10 - - - -
28/05:30pm 30.0 N 5 - 1006.0 - 0.0 - - 10 - - - -
28/05:00pm 31.0 N 7 - 1006.0 - 0.0 - - 10 - - - -
28/04:30pm 31.0 N 8 - 1006.0 - 0.0 - - 10 - - - -
28/04:00pm 32.0 N 8 - 1006.0 - 0.0 - - 10 - - - -
28/03:30pm 33.0 NNE 8 - 1006.0 - 0.0 - Partly cloudy 10 - - - -
28/03:00pm 32.3 N 10 - 1005.7 - 0.0 - Mostly clear 10 - - - -
28/02:30pm 33.0 N 12 - 1006.0 - 0.0 - - 10 - - - -
28/02:00pm 33.0 N 11 - 1006.0 - 0.0 - - 10 - - - -
28/01:30pm 33.0 N 10 - 1006.0 - 0.0 - - 10 - - - -
28/01:00pm 33.0 N 9 - 1007.0 - 0.0 - Partly cloudy 10 - - - -
28/12:30pm 35.0 NE 7 - 1007.0 - 0.0 - Partly cloudy 10 - - - -
28/12:00pm 34.9 ENE 8 - 1007.3 - 0.0 - - 10 - - - -
28/11:30am 34.0 E 10 - 1008.0 - 0.0 - - 9 - - - -
28/11:00am 34.0 ENE 9 - 1008.0 - 0.0 - - 10 - - - -
28/10:30am 34.0 ENE 9 - 1008.0 - 0.0 - - 10 - - - -
28/10:00am 34.0 ENE 6 - 1009.0 - 0.0 - Partly cloudy 10 - - - -
28/09:30am 33.0 E 3 - 1009.0 - 0.0 - - 10 - - - -
28/09:00am 32.9 S 7 - 1009.0 - 0.4 - - 10 - - - -
28/08:30am 32.0 S 5 - 1009.0 - 0.4 - - 10 - - - -
28/08:00am 31.0 SE 6 - 1009.0 - 0.4 - - 10 - - - -
28/07:30am 31.0 SW 5 - 1009.0 - 0.4 - - 10 - - - -
28/07:00am 30.0 S 5 - 1009.0 - 0.4 - - 10 - - - -
28/06:30am 29.0 S 5 - 1009.0 - 0.4 - - 9 - - - -
28/06:00am 28.0 S 5 - 1008.6 - 0.4 - Mostly clear 10 - - - -
28/05:30am 27.0 SW 4 - 1009.0 - 0.4 - - 10 - - - -
28/05:00am 26.0 CALM 0 - 1008.0 - 0.4 - - 9 - - - -
28/04:30am 26.0 CALM 0 - 1008.0 - 0.4 - - 10 - - - -
28/04:00am 26.0 CALM 0 - 1008.0 - 0.4 - - 10 - - - -
28/03:30am 25.0 CALM 0 - 1008.0 - 0.4 - - 10 - - - -
28/03:00am 25.1 CALM 0 - 1007.4 - 0.4 - - 10 - - - -
28/02:30am 25.0 CALM 0 - 1007.0 - 0.4 - - 10 - - - -
28/02:00am 25.0 CALM 0 - 1007.0 - 0.4 - - 10 - - - -
28/01:30am 26.0 ESE 3 - 1008.0 - 0.4 - Partly cloudy 6 - - - -
28/01:00am 26.0 CALM 0 - 1008.0 - 0.4 - - 10 - - - -
28/12:30am 26.0 CALM 0 - 1008.0 - 0.4 - Partly cloudy 10 - - - -
28/12:04am 26.0 CALM 0 - 1009.0 - 0.4 - - 10 - - - -
28/12:00am 26.1 CALM 0 - 1008.5 - 0.4 - - 10 - - - -
 
Date/Time
WST
Temp

°C
Wind Pressure Rain
since 9am
mm
Weather Cloud Vis
km
Sea
Height
m
Swell
Dir
 
Speed
knots
Gust
knots
hPa Trend Height
m
Period
s
Dir
27/11:48pm 26.0 CALM 0 - 1009.0 - 0.4 - - 5 - - - -
27/11:30pm 26.0 S 3 - 1009.0 - 0.4 - - 9 - - - -
27/11:00pm 26.0 S 3 - 1009.0 - 0.4 - Partly cloudy 10 - - - -
27/10:30pm 26.0 SSE 3 - 1010.0 - 0.4 - - 10 - - - -
27/10:00pm 27.0 CALM 0 - 1010.0 - 0.4 - Partly cloudy - - - - -
27/09:30pm 27.0 S 3 - 1010.0 - 0.4 - Partly cloudy 10 - - - -
27/09:00pm 26.4 CALM 0 - 1009.8 - 0.4 - - 10 - - - -
27/08:30pm 27.0 CALM 0 - 1010.0 - 0.4 - - 10 - - - -
27/08:00pm 27.0 SW 1 - 1009.0 - 0.4 - - 10 - - - -
27/07:30pm 28.0 SW 3 - 1009.0 - 0.4 - - 10 - - - -
27/07:00pm 28.0 S 6 - 1008.0 - 0.4 - - 10 - - - -
27/06:30pm 28.0 SW 4 - 1008.0 - 0.4 - - 10 - - - -
27/06:00pm 28.6 SW 4 - 1007.1 - 0.4 - - 10 - - - -
27/05:30pm 29.0 SSW 6 - 1007.0 - 0.4 - - 10 - - - -
27/05:00pm 31.0 SW 6 - 1007.0 - 0.4 - - 10 - - - -
27/04:30pm 32.0 N 1 - 1006.0 - 0.4 - - 10 - - - -
27/04:00pm 31.0 NNW 5 - 1006.0 - 0.4 - - 7 - - - -
27/03:30pm 30.0 N 5 - 1006.0 - 0.2 - - 10 - - - -
27/03:00pm 28.6 SE 2 - 1006.7 - 0.2 - - 10 - - - -
27/02:30pm 28.0 ESE 5 - 1007.0 - 0.2 - Partly cloudy 10 - - - -
27/02:00pm 29.0 ESE 6 - 1008.0 - 0.2 - Partly cloudy 10 - - - -
27/01:30pm 28.0 E 10 - 1008.0 - 0.2 - Partly cloudy 10 - - - -
27/01:00pm 29.0 E 10 - 1008.0 - 0.2 - Partly cloudy 10 - - - -
27/12:30pm 27.0 ENE 10 - 1008.0 - 0.0 - Partly cloudy 10 - - - -
27/12:00pm 30.6 N 15 27 1008.0 - 0.0 - Partly cloudy 10 - - - -
27/11:59am 31.0 N 15 27 1008.0 - 0.0 - Partly cloudy 10 - - - -
27/11:30am 32.0 N 12 - 1008.0 - 0.0 - Partly cloudy 9 - - - -
27/11:00am 34.0 N 10 - 1008.0 - 0.0 - Partly cloudy 10 - - - -
27/10:30am 33.0 NNE 7 - 1009.0 - 0.0 - Partly cloudy 10 - - - -
27/10:00am 33.0 NE 7 - 1009.0 - 0.0 - Partly cloudy 10 - - - -
27/09:30am 32.0 N 5 - 1009.0 - 0.0 - Partly cloudy 10 - - - -
27/09:00am 32.2 ENE 6 - 1009.0 - 0.0 - Mostly clear 10 - - - -
27/08:30am 32.0 NNE 4 - 1009.0 - 0.0 - Partly cloudy 10 - - - -
27/08:00am 32.0 NE 4 - 1009.0 - 0.0 - Partly cloudy 10 - - - -
27/07:30am 31.0 NE 4 - 1009.0 - 0.0 - - 10 - - - -
27/07:00am 30.0 NNE 4 - 1009.0 - 0.0 - - 10 - - - -
27/06:30am 30.0 E 3 - 1009.0 - 0.0 - - 10 - - - -
27/06:00am 28.5 E 3 - 1008.2 - 0.0 - - 10 - - - -
27/05:30am 27.0 CALM 0 - 1008.0 - 0.0 - - 10 - - - -
27/05:00am 26.0 E 3 - 1007.0 - 0.0 - - 10 - - - -
27/04:30am 26.0 E 3 - 1007.0 - 0.0 - - 10 - - - -
27/04:00am 26.0 E 1 - 1007.0 - 0.0 - - 10 - - - -
27/03:30am 26.0 CALM 0 - 1007.0 - 0.0 - - 10 - - - -
27/03:00am 26.1 E 1 - 1006.4 - 0.0 - - 10 - - - -
27/02:30am 26.0 CALM 0 - 1007.0 - 0.0 - - 10 - - - -
27/02:00am 26.0 NNE 3 - 1007.0 - 0.0 - - 10 - - - -
27/01:30am 26.0 E 2 - 1007.0 - 0.0 - - 10 - - - -
27/01:00am 27.0 CALM 0 - 1007.0 - 0.0 - - 10 - - - -
27/12:30am 27.0 CALM 0 - 1007.0 - 0.0 - - 10 - - - -
27/12:00am 27.1 NE 4 - 1006.7 - 0.0 - - 10 - - - -
 
Date/Time
WST
Temp

°C
Wind Pressure Rain
since 9am
mm
Weather Cloud Vis
km
Sea
Height
m
Swell
Dir
 
Speed
knots
Gust
knots
hPa Trend Height
m
Period
s
Dir
26/11:30pm 27.0 CALM 0 - 1007.0 - 0.0 - - 10 - - - -
26/11:00pm 27.0 NNE 1 - 1007.0 - 0.0 - - 10 - - - -
26/10:30pm 27.0 CALM 0 - 1007.0 - 0.0 - - 10 - - - -
26/10:00pm 28.0 NE 3 - 1008.0 - 0.0 - - 10 - - - -
26/09:30pm 28.0 NE 3 - 1008.0 - 0.0 - - 10 - - - -
26/09:00pm 28.2 NE 4 - 1007.8 - 0.0 - - 10 - - - -
26/08:30pm 28.0 NE 3 - 1008.0 - 0.0 - - 10 - - - -
26/08:00pm 28.0 NNE 5 - 1008.0 - 0.0 - - 10 - - - -
26/07:30pm 28.0 NNE 4 - 1007.0 - 0.0 - - 10 - - - -
26/07:00pm 29.0 NNE 5 - 1007.0 - 0.0 - - 10 - - - -
26/06:30pm 29.0 NNE 6 - 1006.0 - 0.0 - - 10 - - - -
26/06:00pm 29.4 NNE 6 - 1005.9 - 0.0 - Partly cloudy 10 - - - -
26/05:30pm 30.0 N 7 - 1006.0 - 0.0 - Partly cloudy 10 - - - -
26/05:00pm 30.0 NNE 7 - 1005.0 - 0.0 - - 10 - - - -
26/04:30pm 30.0 NNE 8 - 1005.0 - 0.0 - - 10 - - - -
26/04:00pm 31.0 NNE 8 - 1005.0 - 0.0 - - 10 - - - -
26/03:30pm 31.0 N 9 - 1005.0 - 0.0 - Partly cloudy 10 - - - -
26/03:00pm 32.4 N 9 - 1004.6 - 0.0 - Mostly clear 10 - - - -
26/02:30pm 32.0 NE 7 - 1005.0 - 0.0 - - 10 - - - -

Other Formats:

Comma delimited format used in spreadsheet applications
http://www.bom.gov.au/fwo/IDW60701/IDW60701.95101.axf

JavaScript Object Notation format (JSON) in row-major order
http://www.bom.gov.au/fwo/IDW60701/IDW60701.95101.json